sat.trackr.live / text

‹ back to catalog

ASIASAT 8 (AMOS-7)

NORAD 40107 · 2014-046A

PAYLOAD ACTIVE UNKNOWN

§ Identity

Operator
Country
AC
Launch date
2014-08-05
Launch site
AFETR
Launch vehicle
Mass (kg)
RCS (m²)
44.82

Purposes: comms

External: N2YO · Heavens-Above · Gunter

§ Orbital elements

Epoch: 2026-05-25T00:49:21.410112Z

Period
1,436.08 min
Inclination
0.0432°
Eccentricity
0.0001454
Mean motion
1.00273145 rev/d
Perigee alt
35,780.1 km
Apogee alt
35,792.3 km
Semi-major
42,164.4 km
B*
0.0000e+0
RAAN
112.3585°
Arg perigee
295.5170°
Mean anomaly
312.4086°
Rev number
10,191

§ Raw data

ASIASAT 8 (AMOS-7)1 40107U 14046A   26145.03427558 -.00000336  00000+0  00000+0 0  99902 40107   0.0432 112.3585 0001454 295.5170 312.4086  1.00273145101910

JSON: /api/v1/satellites/40107 · /tle

For live sub-satellite position, see the globe view (requires WebGL).

§ Visibility from observer

Set your observer location to see the next 7 days of passes ≥ 10°. The values pass through the URL so the page stays shareable.

No JS? Fill the form by hand. The geolocation button needs JavaScript.